Flag for Canada Weather past 2 weeks in Granby, Quebec, Canada

Now
23 °F

Cold.


Feels Like: 23 °F
Forecast: 14 / 26 °F
Wind: No wind

Location: Frelighsburg

Current Time: Dec 19, 2014 at 5:25:54 AM

Latest Report: Dec 19, 2014 at 5:00 AM


Visibility: N/A

Pressure: 29.94 "Hg

Humidity: 99%

Dew point: 23 °F

Location of GranbyLocation

Historic Weather in Granby — Graph

°F

Granby temperature yesterday

Maximum temperature yesterday: 33 °F (at 2:00 AM)
Minimum temperature yesterday: 26 °F (at 11:00 PM)
Average temperature yesterday: 29 °F

Past Weeks' High & Low Weather Summary

 TemperatureHumidityPressure
High38 °F (Dec 17, 1:00 PM)100% (Dec 6, 1:00 PM)30.81 "Hg (Dec 6, 1:00 PM)
Low5 °F (Dec 7, 8:00 PM)37% (Dec 4, 9:00 AM)29.48 "Hg (Dec 11, 1:00 AM)
Average26 °F90%30.05 "Hg
* Reported Dec 4 4:00 AM — Dec 19 4:00 AM, Granby, Weather by CustomWeather, © 2014

Note: Actual official high and low records may vary slightly from our data, if they occured in-between our weather recording intervals... More about our weather records

Advertising

Granby weather history for previous 24 hours

 ConditionsComfort  
Time TempWeatherWind HumidityBarometerVisibility
4:00 AM
Dec 19
26 °FChilly.No wind100%29.93 "HgN/A
3:00 AM24 °FCold.5 mph100%29.93 "HgN/A
2:00 AM24 °FCold.5 mph100%29.92 "HgN/A
1:00 AM24 °FCold.3 mph100%29.91 "HgN/A
12:00 AM25 °FCold.5 mph98%29.91 "HgN/A
11:00 PM
Dec 18
26 °FChilly.6 mph99%29.90 "HgN/A
10:00 PM26 °FChilly.6 mph100%29.90 "HgN/A
9:00 PM27 °FChilly.6 mph99%29.90 "HgN/A
8:00 PM27 °FChilly.6 mph98%29.90 "HgN/A
7:00 PM28 °FChilly.5 mph99%29.89 "HgN/A
6:00 PM28 °FChilly.3 mph99%29.88 "HgN/A
5:00 PM28 °FChilly.5 mph99%29.87 "HgN/A
4:00 PM28 °FChilly.6 mph100%29.85 "HgN/A
3:00 PM29 °FChilly.5 mph100%29.84 "HgN/A
2:00 PM28 °FChilly.7 mph99%29.83 "HgN/A
1:00 PM28 °FChilly.7 mph100%29.82 "HgN/A
12:00 PM29 °FChilly.7 mph100%29.82 "HgN/A
11:00 AM31 °FChilly.5 mph100%29.80 "HgN/A
10:00 AM30 °FChilly.1 mph100%29.82 "HgN/A
9:00 AM29 °FChilly.3 mph100%29.81 "HgN/A
8:00 AM29 °FChilly.5 mph100%29.80 "HgN/A
7:00 AM29 °FChilly.6 mph100%29.78 "HgN/A
6:00 AM30 °FChilly.6 mph100%29.75 "HgN/A
5:00 AM30 °FChilly.5 mph100%29.74 "HgN/A
Weather by CustomWeather, © 2014

See weather overviewHow to use our weather pages